This is the latest recevied weather packets stored in our database for station/object KM8V-8. If no packets are shown the sender has not sent any weather packets the latest 10 day(s).
| Time | Temp. | Humidity | Pressure | Rain* | Wind** | Luminosity | Snow |
|---|---|---|---|---|---|---|---|
| 1778114723 | 8.33° C | 73% | 1012.9 hPa | 0 mm | - | 1 W/m² | - |
| 1778114423 | 8.33° C | 73% | 1012.9 hPa | 0 mm | - | 3 W/m² | - |
| 1778114124 | 8.89° C | 72% | 1012.9 hPa | 0 mm | - | 4 W/m² | - |
| 1778113824 | 8.89° C | 72% | 1012.9 hPa | 0 mm | - | 5 W/m² | - |
| 1778113524 | 8.89° C | 71% | 1012.9 hPa | 0 mm | - | 7 W/m² | - |
| 1778113223 | 8.89° C | 70% | 1012.9 hPa | 0 mm | - | 9 W/m² | - |
| 1778112924 | 8.89° C | 70% | 1013 hPa | 0 mm | - | 12 W/m² | - |
| 1778112624 | 8.89° C | 68% | 1013 hPa | 0 mm | - | 14 W/m² | - |
| 1778112324 | 8.89° C | 68% | 1012.9 hPa | 0 mm | - | 17 W/m² | - |
| 1778112024 | 8.89° C | 67% | 1012.8 hPa | 0 mm | - | 20 W/m² | - |
| 1778111726 | 8.89° C | 66% | 1012.9 hPa | 0 mm | - | 25 W/m² | - |
| 1778111424 | 8.89° C | 66% | 1012.9 hPa | 0 mm | - | 29 W/m² | - |
| 1778111126 | 9.44° C | 66% | 1012.9 hPa | 0 mm | - | 36 W/m² | - |
| 1778110824 | 9.44° C | 67% | 1012.8 hPa | 0 mm | - | 40 W/m² | - |
| 1778110524 | 9.44° C | 66% | 1012.8 hPa | 0 mm | - | 56 W/m² | - |
| 1778110226 | 9.44° C | 65% | 1012.7 hPa | 0 mm | - | 53 W/m² | - |
| 1778109925 | 9.44° C | 65% | 1012.7 hPa | 0 mm | - | 50 W/m² | - |
| 1778109625 | 9.44° C | 65% | 1012.6 hPa | 0 mm | - | 56 W/m² | - |
| 1778109325 | 9.44° C | 64% | 1012.6 hPa | 0 mm | - | 62 W/m² | - |
| 1778109025 | 9.44° C | 65% | 1012.7 hPa | 0 mm | - | 71 W/m² | - |
| 1778108725 | 9.44° C | 65% | 1012.8 hPa | 0 mm | - | 69 W/m² | - |
| 1778108417 | 9.44° C | 65% | 1012.8 hPa | 0 mm | - | 68 W/m² | - |
| 1778108125 | 9.44° C | 65% | 1012.6 hPa | 0 mm | - | 76 W/m² | - |
| 1778107827 | 9.44° C | 65% | 1012.7 hPa | 0 mm | - | 87 W/m² | - |
| 1778107526 | 10° C | 66% | 1012.7 hPa | 0 mm | - | 94 W/m² | - |
* Rain latest hour (hover to see other rain measurements)
** Current wind speed in m/s (hover to see current wind gust speed)